When you browse on this site, cookies collect data to enhance your experience and personalize the content and advertising you see.
Visit our Privacy Policy to learn more. By continuing to use the site, you agree to this use of cookies and data.
  • In Romania
  • List of Countries
  • For 7 days
  • Water Temperature
  • Weather Map
  • Weather Widgets
  • user-avatar
    Login

    Hourly Weather Lankaran

    Today, 26 February, Wednesday

    Time Temperature Precipitation Wind Pressure Humidity
    00:00 -5°C° 0.4 mm 2 mps 630 mmHg 82%
    01:00 -5°C° 0 mm 2 mps 630 mmHg 78%
    02:00 -5°C° 0 mm 2 mps 630 mmHg 74%
    03:00 -5°C° 0 mm 2 mps 630 mmHg 71%
    04:00 -5°C° 0 mm 2 mps 631 mmHg 71%
    05:00 -5°C° 0 mm 2 mps 631 mmHg 72%
    06:00 -6°C° 0 mm 2 mps 631 mmHg 72%
    07:00 -5°C° 0 mm 2 mps 632 mmHg 72%
    08:00 -6°C° 0 mm 3 mps 632 mmHg 72%
    09:00 -5°C° 0 mm 3 mps 633 mmHg 71%
    10:00 -5°C° 0.1 mm 3 mps 633 mmHg 71%
    11:00 -4°C° 0.1 mm 3 mps 633 mmHg 70%
    12:00 -2°C° 0.1 mm 3 mps 634 mmHg 70%
    13:00 -2°C° 0 mm 3 mps 634 mmHg 70%
    14:00 -2°C° 0 mm 3 mps 634 mmHg 70%
    15:00 -2°C° 0 mm 2 mps 634 mmHg 69%
    16:00 -2°C° 0 mm 2 mps 634 mmHg 74%
    17:00 -3°C° 0 mm 2 mps 634 mmHg 78%
    18:00 -2°C° 0 mm 1 mps 634 mmHg 82%
    19:00 -2°C° 0 mm 1 mps 634 mmHg 81%
    20:00 -2°C° 0 mm 1 mps 634 mmHg 80%
    21:00 -2°C° 0 mm 1 mps 634 mmHg 79%
    22:00 -1°C° 0 mm 1 mps 634 mmHg 77%
    23:00 -3°C° 0 mm 2 mps 634 mmHg 75%

    Tomorrow, 27 February, Thursday

    Time Temperature Precipitation Wind Pressure Humidity
    00:00 -3°C° 0 mm 2 mps 634 mmHg 73%
    01:00 -3°C° 0 mm 2 mps 633 mmHg 71%
    02:00 -3°C° 0 mm 2 mps 633 mmHg 69%
    03:00 -3°C° 0 mm 2 mps 633 mmHg 66%
    04:00 -3°C° 0 mm 2 mps 633 mmHg 65%
    05:00 -3°C° 0 mm 2 mps 633 mmHg 63%
    06:00 -3°C° 0 mm 2 mps 633 mmHg 61%
    07:00 -2°C° 0 mm 2 mps 634 mmHg 57%
    08:00 +1°C° 0 mm 2 mps 635 mmHg 53%
    09:00 +2°C° 0 mm 2 mps 635 mmHg 49%
    10:00 +4°C° 0 mm 2 mps 635 mmHg 47%
    11:00 +5°C° 0 mm 2 mps 635 mmHg 46%
    12:00 +5°C° 0 mm 3 mps 635 mmHg 44%
    13:00 +5°C° 0 mm 3 mps 635 mmHg 46%
    14:00 +7°C° 0 mm 3 mps 635 mmHg 48%
    15:00 +7°C° 0 mm 3 mps 634 mmHg 50%
    16:00 +4°C° 0 mm 3 mps 634 mmHg 54%
    17:00 +3°C° 0 mm 3 mps 633 mmHg 58%
    18:00 +1°C° 0 mm 3 mps 632 mmHg 62%
    19:00 +1°C° 0 mm 3 mps 632 mmHg 60%
    20:00 +1°C° 0 mm 3 mps 632 mmHg 59%
    21:00 +1°C° 0 mm 3 mps 632 mmHg 57%
    22:00 +1°C° 0 mm 3 mps 631 mmHg 55%
    23:00 +1°C° 0 mm 3 mps 631 mmHg 53%

    Day after tomorrow, 28 February, Friday

    Time Temperature Precipitation Wind Pressure Humidity
    00:00 +1°C° 0 mm 3 mps 630 mmHg 50%
    01:00 +1°C° 0 mm 3 mps 630 mmHg 49%
    02:00 +1°C° 0 mm 3 mps 630 mmHg 48%
    03:00 +1°C° 0 mm 3 mps 629 mmHg 47%
    04:00 +1°C° 0 mm 3 mps 629 mmHg 47%
    05:00 +1°C° 0 mm 3 mps 629 mmHg 46%
    06:00 +1°C° 0 mm 3 mps 629 mmHg 46%
    07:00 +2°C° 0 mm 3 mps 629 mmHg 44%
    08:00 +3°C° 0 mm 4 mps 629 mmHg 43%
    09:00 +5°C° 0 mm 4 mps 630 mmHg 42%
    10:00 +6°C° 0 mm 4 mps 630 mmHg 39%
    11:00 +7°C° 0 mm 4 mps 630 mmHg 37%
    12:00 +9°C° 0 mm 5 mps 630 mmHg 35%
    13:00 +9°C° 0 mm 5 mps 629 mmHg 35%
    14:00 +9°C° 0 mm 5 mps 629 mmHg 34%
    15:00 +10°C° 0 mm 5 mps 629 mmHg 34%
    16:00 +8°C° 0 mm 5 mps 629 mmHg 37%
    17:00 +7°C° 0 mm 4 mps 628 mmHg 40%
    18:00 +5°C° 0 mm 4 mps 628 mmHg 43%
    19:00 +5°C° 0 mm 4 mps 628 mmHg 43%
    20:00 +5°C° 0 mm 4 mps 628 mmHg 44%
    21:00 +4°C° 0 mm 4 mps 628 mmHg 45%
    22:00 +4°C° 0 mm 3 mps 628 mmHg 46%
    23:00 +4°C° 0 mm 3 mps 628 mmHg 48%

    29 February, Saturday

    Time Temperature Precipitation Wind Pressure Humidity
    00:00 +4°C° 0 mm 2 mps 628 mmHg 49%
    01:00 +4°C° 0 mm 2 mps 629 mmHg 51%
    02:00 +3°C° 0 mm 2 mps 629 mmHg 53%
    03:00 +4°C° 0 mm 1 mps 629 mmHg 56%
    04:00 +2°C° 0 mm 2 mps 629 mmHg 61%
    05:00 +1°C° 0 mm 2 mps 629 mmHg 66%
    06:00 -1°C° 0 mm 3 mps 629 mmHg 71%
    07:00 0°C° 0 mm 3 mps 630 mmHg 74%
    08:00 +1°C° 0 mm 3 mps 630 mmHg 76%
    09:00 +1°C° 0 mm 3 mps 631 mmHg 78%
    10:00 +2°C° 0 mm 3 mps 630 mmHg 74%
    11:00 +3°C° 0 mm 3 mps 630 mmHg 70%
    12:00 +4°C° 0 mm 3 mps 630 mmHg 66%
    13:00 +5°C° 0 mm 2 mps 629 mmHg 65%
    14:00 +6°C° 0 mm 2 mps 629 mmHg 65%
    15:00 +6°C° 0 mm 2 mps 628 mmHg 64%
    16:00 +6°C° 0 mm 2 mps 628 mmHg 67%
    17:00 +5°C° 0 mm 2 mps 627 mmHg 69%
    18:00 +4°C° 0 mm 2 mps 627 mmHg 71%
    19:00 +4°C° 0.1 mm 2 mps 627 mmHg 72%
    20:00 +4°C° 0.1 mm 2 mps 627 mmHg 73%
    21:00 +3°C° 0.1 mm 3 mps 627 mmHg 74%
    22:00 +3°C° 0.1 mm 3 mps 626 mmHg 76%
    23:00 +3°C° 0.1 mm 3 mps 626 mmHg 77%

    1 March, Sunday

    Time Temperature Precipitation Wind Pressure Humidity
    00:00 +2°C° 0.1 mm 3 mps 626 mmHg 79%
    01:00 +2°C° 0 mm 3 mps 625 mmHg 80%
    02:00 +2°C° 0 mm 3 mps 625 mmHg 82%
    03:00 +1°C° 0 mm 3 mps 625 mmHg 84%
    04:00 +1°C° 0.1 mm 3 mps 625 mmHg 85%
    05:00 +2°C° 0.1 mm 2 mps 625 mmHg 86%
    06:00 +2°C° 0.1 mm 2 mps 626 mmHg 87%
    07:00 +2°C° 0.3 mm 2 mps 626 mmHg 87%
    08:00 +2°C° 0.3 mm 2 mps 627 mmHg 87%
    09:00 +2°C° 0.3 mm 2 mps 627 mmHg 87%
    10:00 0°C° 0.7 mm 3 mps 627 mmHg 86%
    11:00 -1°C° 0.7 mm 3 mps 627 mmHg 85%
    12:00 -1°C° 0.7 mm 3 mps 627 mmHg 84%
    13:00 -2°C° 1.1 mm 3 mps 627 mmHg 86%
    14:00 -2°C° 1.1 mm 3 mps 627 mmHg 88%
    15:00 -4°C° 1.1 mm 3 mps 628 mmHg 90%
    16:00 -4°C° 0.8 mm 3 mps 628 mmHg 91%
    17:00 -4°C° 0.8 mm 3 mps 629 mmHg 92%
    18:00 -5°C° 0.8 mm 3 mps 630 mmHg 93%
    19:00 -5°C° 0.7 mm 3 mps 630 mmHg 93%
    20:00 -4°C° 0.7 mm 2 mps 631 mmHg 93%
    21:00 -5°C° 0.7 mm 2 mps 631 mmHg 93%
    22:00 -5°C° 0.1 mm 2 mps 632 mmHg 92%
    23:00 -3°C° 0.1 mm 1 mps 632 mmHg 90%

    2 March, Monday

    Time Temperature Precipitation Wind Pressure Humidity
    00:00 -4°C° 0.1 mm 1 mps 632 mmHg 89%
    01:00 -4°C° 0 mm 1 mps 632 mmHg 87%
    02:00 -4°C° 0 mm 1 mps 632 mmHg 86%
    03:00 -6°C° 0 mm 1 mps 632 mmHg 84%
    04:00 -6°C° 0 mm 1 mps 632 mmHg 83%
    05:00 -6°C° 0 mm 1 mps 632 mmHg 82%
    06:00 -6°C° 0 mm 1 mps 632 mmHg 80%
    07:00 -4°C° 0 mm 1 mps 633 mmHg 77%
    08:00 -2°C° 0 mm 1 mps 633 mmHg 74%
    09:00 -1°C° 0 mm 1 mps 634 mmHg 71%
    10:00 -3°C° 0 mm 2 mps 634 mmHg 71%
    11:00 -2°C° 0 mm 2 mps 633 mmHg 70%
    12:00 -1°C° 0 mm 2 mps 633 mmHg 70%
    13:00 -1°C° 0 mm 2 mps 633 mmHg 69%
    14:00 +1°C° 0 mm 2 mps 633 mmHg 68%
    15:00 +1°C° 0 mm 2 mps 632 mmHg 67%
    16:00 +1°C° 0 mm 1 mps 632 mmHg 71%
    17:00 0°C° 0 mm 1 mps 632 mmHg 76%
    18:00 -1°C° 0 mm 1 mps 632 mmHg 80%
    19:00 -1°C° 0 mm 1 mps 632 mmHg 80%
    20:00 -1°C° 0 mm 1 mps 632 mmHg 80%
    21:00 -1°C° 0 mm 1 mps 632 mmHg 79%
    22:00 -1°C° 0 mm 1 mps 632 mmHg 77%
    23:00 -1°C° 0 mm 1 mps 632 mmHg 75%
    Show more